Regional Weather Roundup
Issued by NWS

Home | Current Version | Previous Version | Text Only | Print | Product List | Glossary On
Versions: 1 2 3 4 5 6 7 8 9 10 11 12 13 14 15 16 17 18 19 20 21 22 23 24 25 26 27 28 29 30 31 32 33 34 35 36 37 38 39 40 41 42 43 44 45 46 47 48 49 50
000
ASUS42 KKEY 261110
RWRKEY

FLORIDA REGIONAL WEATHER ROUNDUP FOR THE FLORIDA KEYS
NATIONAL WEATHER SERVICE KEY WEST FLORIDA
700 AM EDT SUN APR 26 2015

...SOUTH FLORIDA AND THE KEYS...

CITY           SKY/WX    TMP DP  RH WIND       PRES   REMARKS
FORT MYERS     CLEAR     79  74  84 SW9       29.80S
SW REGIONAL AP CLEAR     78  73  84 SW10      29.81S
NAPLES         CLEAR     80  73  79 SW12      29.82S
MIAMI          PTCLDY    76  72  87 SW5       29.84S
WEST KENDALL   CLEAR     75  72  90 SW6       29.84S
HOMESTEAD      CLEAR     74  73  95 SW5       29.84S
MARATHON       PTCLDY    82  75  79 VRB3      29.85R
BOCA CHICA NAS PTCLDY    82  74  76 SW6       29.86R
KEY WEST INTL  MOCLDY    82  75  79 SW7       29.86R

...INTERNATIONAL WEATHER...

CITY           SKY/WX    TMP DP  RH WIND       PRES   REMARKS
NASSAU BAHAMAS   N/A     79  73  83 SW7       29.87R
CANCUN MEXICO  PTCLDY    79  75  89 SE10      29.82S
COZUMEL MEXICO PTCLDY    73  73 100 SE5       29.83S

ADJACENT COASTAL WATERS...

STATION/POSITION TIME  SKY/WX   TEMP    WIND        PRES    WAVE
                                AIR SEA DIR/SP/G            HT/PER
                 (UTC)          (F)     (DEG/KT/KT) (MB)    (FT/S)
PULASKI SHOAL LI 1000            81     260/  3/  3 1010.4R
SAND KEY         1050            82     200/  8/  9 1010.8R
SOMBRERO KEY     1000            82     200/ 10/ 12 1011.1R
LONG KEY         1000            83 86  230/ 12/ 13 1011.5R
MOLASSES REEF    1000            81 81  250/  8/ 10 1010.6R
FOWEY ROCKS      NOT AVBL

$$


USA.gov is the U.S. government's official web portal to all federal, state and local government web resources and services.